Vertical_Velocity
4 4 3 3 3 6 8 8 3 1 1 2 4 6 9 14 19 20 20 18 19 19 19 18 13 10 11 14 17 17 15 12 10 9 10 12 10 6 2 3 3 4 5 6 4 1 -0 0 7 9 8 2 1 1 1 0 1 1 1 1 1 1 2 2 2 2 2 2 2
4 3 2 -0 1 4 7 7 4 3 2 1 0 1 4 9 15 20 24 24 24 23 21 17 14 13 13 15 16 14 11 8 8 9 10 9 5 2 2 3 4 4 3 3 2 1 1 4 9 9 4 -0 3 3 1 0 1 1 1 1 1 2 2 3 3 3 4 3 3
1 1 1 0 1 2 3 3 4 4 4 3 1 1 2 5 12 18 24 27 25 23 20 17 15 14 13 14 14 13 12 11 11 11 11 10 5 4 4 7 6 5 3 4 4 4 5 8 10 7 3 3 6 4 1 1 1 1 1 1 2 3 3 3 4 5 6 5 4
4 3 3 3 4 3 2 0 2 3 3 2 1 2 3 6 12 18 22 23 20 18 17 16 14 12 12 12 14 16 18 18 15 11 9 8 9 10 11 13 11 8 5 5 6 7 8 10 7 5 3 3 4 3 2 2 2 2 2 2 4 5 5 5 5 5 5 5 3
11 7 5 5 12 16 14 4 2 4 6 7 9 11 12 13 16 16 15 13 12 11 11 12 11 10 9 10 13 15 17 17 12 8 8 13 15 15 15 14 13 11 8 7 5 6 7 6 4 5 6 4 4 4 4 3 3 2 1 2 4 5 6 7 6 6 5 4 2
1 0 2 7 20 30 31 19 10 7 9 13 16 16 13 10 9 7 6 4 5 6 7 9 10 10 10 10 10 11 12 10 5 4 6 12 15 15 16 17 17 15 11 5 2 5 8 6 6 10 14 13 13 10 7 4 3 2 1 2 3 5 7 7 6 5 4 2 1
-1 3 8 12 18 23 25 20 15 12 10 10 10 8 6 3 2 0 0 1 2 5 7 10 11 11 10 9 8 8 7 5 2 1 3 8 15 19 22 27 25 19 10 2 1 4 8 8 9 11 12 13 13 11 8 4 3 2 2 2 3 4 5 5 4 4 3 3 3
10 15 18 20 27 29 28 21 17 14 11 8 5 4 2 1 -1 -2 -2 -1 0 3 6 9 9 9 8 7 6 6 5 5 3 2 2 4 10 14 19 24 22 15 7 0 1 4 7 7 8 8 6 6 6 7 6 4 3 2 2 2 2 3 4 5 5 5 5 6 6
12 14 15 17 29 32 29 23 20 16 11 4 3 2 1 -2 -3 -3 -2 -2 -1 1 4 7 8 8 8 7 7 6 5 5 4 3 2 1 1 2 3 5 6 5 3 0 1 4 7 6 5 5 5 5 4 3 3 4 6 5 3 2 2 3 3 4 5 7 9 11 9
8 11 12 10 12 13 15 20 23 21 14 5 2 2 3 3 5 5 5 3 2 2 4 6 7 8 8 9 8 7 6 4 3 3 2 1 0 -1 -1 -2 -1 -0 0 0 2 5 7 7 4 4 4 5 4 3 2 3 5 4 3 2 2 2 3 3 5 9 13 13 10
2 8 12 10 1 -1 4 17 28 30 24 12 6 9 17 25 24 22 20 18 14 11 8 6 6 6 5 6 7 6 5 4 3 2 2 2 1 0 -0 -1 -2 -2 -1 0 2 3 5 6 4 3 3 4 4 4 2 2 1 1 1 0 0 1 1 1 4 7 9 8 7
-3 1 6 10 2 -2 0 12 22 24 19 9 5 7 14 25 26 27 27 26 23 18 14 11 9 8 8 9 9 10 9 7 5 4 3 2 1 1 0 -1 -2 -2 -1 -0 1 2 3 5 4 3 2 2 3 3 3 2 1 1 0 -0 0 1 2 2 2 3 3 3 3
-4 -3 -1 2 0 -3 -4 1 7 8 4 -1 -1 -2 -0 5 10 12 12 12 11 10 9 8 9 10 11 12 13 13 12 10 7 5 4 2 1 1 -0 -1 -2 -2 -2 -1 1 3 4 4 4 3 2 1 1 2 2 2 2 1 0 -1 4 9 11 7 3 2 2 1 1
-3 -3 -2 -1 -1 -2 -4 -4 -2 -1 -2 -4 -3 -3 -4 -4 -1 1 2 3 2 2 2 1 1 1 2 3 5 6 7 6 4 3 2 2 1 -0 -1 -2 -3 -3 -2 -1 1 3 5 5 4 2 0 -1 0 1 2 2 2 2 1 -0 5 12 15 10 4 1 1 0 0
-3 -3 -2 -1 -1 -1 -2 -3 -3 -2 -2 -3 -2 -2 -3 -4 -4 -3 -1 1 1 1 0 -1 -2 -2 -2 -1 -0 1 2 2 1 1 0 0 -1 -1 -2 -2 -2 -1 -0 1 2 4 4 4 3 1 -0 -1 0 1 2 2 2 2 1 1 5 7 7 5 2 1 1 1 1
-2 -2 -2 -2 -1 -1 -1 -2 -2 -2 -2 -3 -3 -3 -3 -4 -4 -4 -3 -2 -1 0 0 -0 -2 -2 -3 -2 -1 0 1 1 0 -0 -1 -1 -2 -2 -2 -2 -2 -1 0 2 3 3 3 3 2 2 1 2 2 3 3 3 3 2 2 2 2 2 1 1 1 1 1 1 0
-1 -1 -1 -2 -1 -0 -0 -1 -2 -2 -3 -3 -3 -4 -4 -4 -4 -5 -5 -4 -2 -1 -1 -0 -1 -2 -2 -3 -2 -1 0 1 0 -1 -2 -2 -3 -3 -3 -3 -2 -1 -0 0 1 2 2 3 4 5 6 7 7 6 5 5 5 5 4 4 3 2 2 1 1 1 1 1 -0
-0 0 0 -0 -0 0 1 1 -0 -1 -2 -2 -2 -2 -3 -3 -5 -6 -6 -5 -4 -3 -3 -2 -1 -1 -1 -2 -3 -2 -2 -0 -1 -1 -2 -3 -3 -3 -3 -3 -2 -1 -1 -1 -0 1 2 3 5 8 9 10 9 9 8 7 6 6 5 4 3 2 2 1 1 1 0 -0 -1
-1 0 1 0 1 1 2 2 1 0 -0 -1 -1 -1 -1 -2 -4 -4 -5 -5 -5 -4 -4 -4 -3 -2 -1 -1 -2 -3 -2 -1 -1 -1 -2 -2 -3 -3 -2 -2 -1 -1 -1 -1 -1 -0 0 1 3 5 6 7 6 5 5 4 3 2 1 1 0 0 0 -0 -1 -1 -1 -1 -2
-1 -1 -0 1 2 3 3 3 3 2 1 0 -0 -1 -1 -1 -1 -2 -3 -4 -4 -3 -3 -4 -4 -3 -3 -2 -3 -3 -3 -2 -1 -1 -2 -2 -2 -2 -2 -1 -0 -0 -0 -1 -1 -1 -1 -0 0 0 1 1 0 -0 -1 -1 -2 -2 -2 -2 -2 -2 -2 -2 -2 -2 -2 -2 -2
-2 -2 -1 1 2 2 2 3 3 3 2 1 0 -0 -0 -0 -0 -1 -2 -3 -2 -3 -3 -3 -3 -3 -4 -4 -4 -4 -4 -2 -1 -2 -2 -1 -2 -2 -1 1 0 0 -0 -1 -1 -2 -2 -1 -1 -1 -1 -1 -2 -2 -2 -3 -4 -4 -3 -3 -3 -3 -3 -3 -2 -2 -2 -2 -1
-3 -2 -1 0 1 1 2 3 3 2 2 1 1 0 0 -0 -1 -1 -1 -1 -1 -2 -2 -1 -1 -2 -4 -4 -4 -4 -4 -3 -2 -2 -1 -1 -2 -2 -1 0 -0 -0 0 0 0 -1 -1 -1 -1 -1 -0 -0 -1 -1 -1 -2 -2 -3 -3 -3 -3 -3 -3 -2 -2 -2 -2 -1 -1
-2 -2 -1 -1 -0 0 1 1 1 1 0 0 0 0 0 -0 -0 -0 0 0 -0 0 0 1 -0 -2 -3 -4 -4 -4 -3 -3 -2 -1 -1 -0 -1 -2 -1 -1 -1 0 3 6 4 2 1 1 1 2 2 2 1 1 1 0 -1 -1 -1 -2 -2 -2 -2 -2 -2 -2 -1 -1 -0
-2 -2 -2 -1 -1 -1 -0 0 -0 -0 -0 -0 0 -0 -0 -0 0 0 0 0 1 2 2 2 0 -1 -2 -2 -2 -2 -2 -2 -1 -1 -0 -1 -1 -1 -1 -2 -2 -0 3 5 5 3 3 3 3 3 3 3 3 3 2 2 1 -0 -1 -1 -2 -2 -2 -2 -1 -1 -1 -0 0
-2 -2 -1 -1 -1 -1 -1 -1 -1 -1 -1 -0 -0 -1 -1 -1 -0 0 0 0 2 2 3 2 1 -0 -1 -1 -1 -1 -1 -1 -1 -1 -1 -1 -1 -1 -1 -2 -2 -1 0 2 2 2 2 3 3 2 2 2 2 2 2 2 1 0 -1 -1 -1 -1 -1 -1 -1 -0 -0 -0 1
-1 -1 -1 -1 -1 -1 -1 -1 -1 -1 -0 -0 -1 -1 -2 -1 0 1 1 0 1 2 3 2 1 1 1 0 -0 -0 -0 0 0 -0 -1 -1 -1 -1 -1 -1 -2 -1 -1 -0 -0 0 0 1 0 0 0 0 1 1 0 -0 -0 -1 -1 -1 -1 -1 -1 -1 -0 0 0 0 1
-0 -1 -1 -1 -0 -1 -1 -1 -0 -0 -1 -1 -2 -2 -1 0 1 0 0 1 2 2 2 1 1 2 2 1 1 1 1 2 1 1 0 -0 -0 -0 -1 -1 -1 -1 -1 -1 -2 -2 -1 -1 -1 -1 -1 -1 -1 -1 -1 -1 -1 -1 -1 -1 -1 -0 -1 -1 -0 0 1 1 2
0 -0 -0 0 -0 -1 -1 0 0 -1 -2 -1 -1 -1 -0 1 0 -0 -0 1 2 2 1 0 1 2 2 2 1 2 3 3 2 1 0 0 0 -0 -1 -1 -1 -1 -1 -2 -2 -2 -2 -2 -2 -1 -1 -1 -1 -1 -1 -1 -1 -1 -1 -1 0 0 0 0 0 1 1 1 2
0 0 1 0 -1 -0 0 1 -1 -2 -1 -0 -1 -0 -0 0 -0 -0 0 1 1 0 -0 -0 2 2 2 0 1 3 3 2 1 1 0 0 -0 -0 -0 -0 -1 -1 -1 -1 -1 -2 -1 -1 -1 -1 -1 -0 -1 -1 -1 -1 -1 -1 -0 0 1 1 1 1 1 1 1 1 2
1 0 0 -0 -0 0 0 -0 -1 -1 -0 -0 -1 -1 -1 0 0 0 0 1 -0 -1 -0 1 2 1 -0 -0 2 3 2 -0 0 1 0 -0 -0 -0 0 0 0 0 0 0 -1 -1 -1 -0 -0 -0 0 0 -0 -0 -0 -0 0 0 1 1 2 2 2 1 2 2 1 1 1
-0 -1 -1 -0 0 0 -0 -1 -1 -0 -0 -0 -1 -1 -0 1 1 0 0 0 -1 -0 0 2 0 -1 -1 1 2 1 -0 -1 0 0 -0 -1 -0 0 1 1 1 1 1 1 0 -0 0 1 0 0 0 0 0 0 -0 0 1 1 1 2 2 2 2 2 2 1 1 1 1
-1 -1 -1 -1 -1 -1 -1 -0 -0 -0 -0 0 0 0 1 1 1 1 1 0 -0 0 1 1 -0 -0 0 2 1 0 -0 0 1 0 -0 -0 0 1 1 1 1 1 2 2 1 0 0 1 1 1 1 1 1 0 0 0 1 1 2 2 2 2 2 2 1 1 1 1 1
-1 -1 -1 -1 -1 -1 -1 -0 -0 0 1 1 1 1 2 1 2 1 1 0 0 1 1 1 1 1 1 2 1 1 0 2 1 1 0 0 1 1 1 2 2 2 2 1 0 0 0 1 1 1 1 2 1 1 0 1 1 1 1 1 1 1 1 1 0 0 0 0 0
-1 -1 -1 -1 -1 -1 -1 -0 -0 1 1 1 1 2 2 2 2 1 1 0 1 1 1 1 1 1 2 2 2 2 2 2 3 2 2 2 2 2 2 2 3 3 2 1 0 1 1 1 1 1 1 1 1 1 0 1 1 1 1 1 1 1 1 0 -0 -0 -0 -0 -0
-0 -0 -1 -1 -1 -1 -1 -1 0 1 1 1 1 2 2 2 1 1 1 1 1 1 1 1 2 2 2 2 3 3 3 3 3 3 3 3 3 3 3 3 4 4 3 1 1 2 2 2 1 1 1 1 1 0 0 0 1 1 1 1 1 1 1 0 -0 -1 -1 -1 -1
-0 -0 -1 -1 -1 -1 -1 -1 -0 0 1 0 1 1 1 0 -0 0 1 1 1 1 1 2 3 3 2 2 3 3 3 3 3 3 3 4 4 3 3 4 4 4 3 2 2 2 2 2 1 1 1 1 0 0 0 0 0 1 1 1 1 1 1 0 -1 -1 -1 -1 -1
-1 -1 -0 -0 -0 -1 -1 -1 -0 -0 -1 -1 -0 -0 -1 -1 -1 -0 0 1 1 0 1 3 3 2 1 2 3 3 3 3 3 3 3 3 3 3 3 4 4 4 3 2 1 1 1 1 1 1 1 0 -0 -0 0 0 0 1 1 1 1 0 0 -0 -1 -1 -2 -2 -2
-2 -1 -0 0 0 -1 -1 -1 -1 -1 -1 -1 -1 -1 -1 -1 -1 -1 0 1 0 0 1 3 2 1 1 2 3 2 2 3 3 3 3 2 2 2 3 3 3 3 2 1 0 0 1 1 0 0 0 -0 -1 -0 0 0 0 0 1 0 0 0 -0 -0 -1 -2 -2 -2 -2
-3 -2 -0 0 0 0 -1 -1 -2 -2 -1 -1 -1 -1 -1 -1 -1 -1 0 1 0 1 1 3 1 1 1 3 2 2 2 3 3 2 2 1 2 2 2 2 2 2 2 -0 -1 -0 0 1 0 0 -0 -0 -1 -0 0 0 0 0 0 0 -0 -0 -1 -0 -1 -2 -3 -2 -1
-3 -2 -1 0 1 1 -0 -2 -2 -2 -1 -1 -1 -1 -1 -0 -0 0 1 1 1 1 2 2 1 1 2 3 2 2 2 3 2 2 1 1 2 2 1 0 1 1 1 -1 -1 -1 1 1 1 1 0 0 0 0 0 0 -0 -0 -0 0 -0 -1 -1 -1 -1 -2 -2 -2 -0
-3 -3 -2 -0 1 1 0 -1 -2 -2 -2 -1 -2 -1 -0 1 1 1 1 1 1 2 2 2 1 1 2 2 2 2 2 2 2 1 1 1 2 1 0 -1 -0 0 0 -0 -1 -0 1 2 2 1 1 1 0 0 0 0 -0 -0 -0 0 -0 -1 -1 -1 -1 -1 -1 -2 -0
Height
5745 5746 5747 5748 5749 5750 5750 5751 5751 5751 5751 5752 5753 5754 5755 5757 5759 5761 5763 5765 5767 5770 5772 5772 5771 5770 5769 5770 5771 5772 5772 5772 5771 5772 5773 5772 5771 5770 5770 5771 5772 5773 5774 5774 5773 5773 5774 5774 5774 5773 5771 5770 5770 5771 5771 5772 5772 5772 5771 5771 5771 5771 5771 5771 5770 5770 5771 5771 5771
5743 5744 5745 5745 5746 5746 5747 5748 5748 5749 5749 5750 5751 5752 5753 5754 5756 5758 5760 5762 5765 5767 5768 5768 5768 5767 5767 5767 5767 5768 5768 5768 5769 5770 5770 5770 5769 5768 5768 5769 5769 5769 5769 5770 5770 5770 5770 5770 5769 5767 5766 5767 5769 5768 5767 5768 5768 5768 5768 5768 5768 5768 5768 5768 5768 5768 5769 5769 5769
5740 5742 5743 5744 5744 5744 5745 5746 5747 5747 5748 5749 5750 5751 5751 5752 5753 5755 5758 5761 5763 5764 5764 5764 5764 5764 5763 5763 5764 5764 5764 5765 5766 5766 5766 5767 5766 5765 5765 5765 5766 5766 5766 5766 5766 5766 5766 5765 5764 5764 5764 5764 5764 5764 5764 5764 5764 5764 5764 5765 5765 5766 5766 5766 5766 5766 5767 5767 5767
5739 5740 5742 5742 5743 5744 5744 5744 5745 5746 5747 5747 5748 5749 5750 5750 5752 5755 5758 5759 5758 5758 5759 5760 5761 5759 5759 5759 5760 5760 5760 5761 5761 5761 5762 5762 5762 5761 5761 5762 5762 5762 5762 5763 5763 5763 5762 5762 5762 5761 5761 5761 5761 5761 5761 5761 5762 5762 5762 5763 5763 5763 5763 5764 5764 5764 5764 5764 5765
5737 5738 5740 5741 5745 5746 5746 5743 5743 5744 5746 5747 5749 5750 5750 5751 5753 5754 5754 5753 5752 5752 5754 5756 5757 5756 5755 5756 5756 5756 5756 5757 5757 5758 5759 5760 5761 5761 5761 5760 5759 5758 5759 5759 5760 5759 5759 5759 5759 5759 5759 5758 5758 5758 5758 5759 5759 5759 5760 5760 5760 5760 5761 5761 5761 5762 5762 5762 5762
5733 5735 5737 5740 5745 5748 5747 5743 5741 5741 5743 5745 5746 5746 5746 5746 5747 5747 5747 5748 5749 5749 5751 5752 5752 5752 5753 5753 5753 5753 5753 5753 5753 5754 5757 5759 5760 5759 5759 5758 5757 5756 5755 5756 5757 5757 5756 5755 5757 5759 5759 5758 5758 5757 5757 5756 5757 5757 5757 5757 5758 5758 5758 5759 5759 5759 5759 5759 5759
5734 5736 5737 5738 5740 5741 5741 5739 5738 5738 5738 5739 5739 5739 5740 5742 5743 5744 5745 5746 5746 5747 5748 5749 5749 5749 5749 5749 5749 5749 5749 5749 5750 5751 5753 5756 5758 5758 5758 5757 5754 5753 5753 5753 5754 5754 5753 5754 5756 5756 5757 5757 5757 5756 5755 5754 5754 5754 5754 5755 5755 5755 5756 5756 5756 5756 5757 5757 5757
5731 5733 5736 5739 5739 5737 5736 5734 5733 5733 5733 5734 5735 5736 5738 5740 5741 5742 5743 5744 5744 5744 5744 5744 5745 5745 5745 5745 5746 5746 5746 5747 5748 5748 5749 5751 5752 5753 5753 5752 5751 5750 5749 5750 5751 5752 5751 5751 5753 5753 5752 5752 5753 5754 5754 5753 5752 5752 5752 5752 5753 5753 5753 5753 5754 5754 5754 5754 5754
5726 5727 5729 5732 5733 5733 5733 5731 5730 5729 5729 5730 5732 5734 5737 5739 5739 5740 5740 5741 5741 5741 5741 5741 5741 5742 5742 5742 5743 5743 5743 5744 5744 5745 5746 5746 5746 5745 5745 5745 5745 5746 5746 5747 5749 5749 5750 5750 5749 5749 5749 5749 5750 5750 5751 5751 5751 5750 5750 5750 5750 5750 5750 5750 5751 5751 5752 5752 5752
5721 5722 5721 5722 5723 5725 5729 5731 5729 5728 5727 5727 5729 5732 5735 5737 5738 5738 5738 5738 5738 5738 5738 5738 5738 5738 5739 5739 5739 5740 5740 5740 5741 5742 5743 5743 5743 5743 5743 5743 5743 5743 5744 5744 5745 5747 5748 5748 5747 5747 5746 5747 5747 5747 5747 5748 5748 5748 5748 5747 5747 5747 5747 5748 5748 5749 5749 5750 5749
5717 5718 5717 5717 5718 5721 5726 5732 5730 5727 5724 5724 5725 5729 5733 5734 5734 5735 5735 5735 5735 5735 5734 5734 5734 5735 5735 5736 5736 5736 5737 5737 5738 5738 5739 5739 5740 5740 5740 5740 5740 5740 5741 5742 5743 5744 5745 5745 5744 5743 5743 5744 5744 5744 5744 5744 5744 5744 5744 5744 5744 5745 5745 5745 5745 5746 5746 5746 5746
5712 5713 5713 5713 5715 5717 5720 5723 5723 5720 5718 5718 5720 5724 5726 5726 5727 5728 5729 5729 5729 5729 5730 5731 5731 5732 5733 5733 5733 5733 5733 5734 5734 5734 5735 5736 5736 5736 5737 5737 5737 5738 5738 5739 5739 5740 5741 5742 5742 5741 5740 5740 5740 5740 5740 5740 5741 5741 5741 5741 5742 5743 5743 5743 5743 5743 5743 5743 5744
5707 5708 5709 5709 5710 5711 5713 5714 5713 5713 5713 5715 5717 5719 5720 5721 5720 5721 5721 5722 5722 5723 5724 5725 5726 5727 5728 5728 5729 5729 5730 5730 5730 5731 5732 5732 5733 5733 5734 5734 5734 5735 5735 5735 5736 5736 5737 5738 5737 5737 5737 5737 5737 5737 5737 5737 5737 5738 5738 5739 5741 5743 5743 5741 5741 5741 5741 5741 5740
5704 5704 5705 5705 5706 5707 5708 5708 5708 5708 5710 5712 5714 5715 5716 5717 5717 5717 5718 5718 5719 5720 5720 5721 5722 5722 5723 5724 5724 5725 5725 5726 5727 5727 5728 5729 5729 5730 5730 5731 5731 5732 5732 5732 5733 5733 5733 5734 5734 5734 5734 5734 5734 5734 5734 5734 5734 5734 5735 5736 5738 5740 5741 5739 5738 5738 5738 5738 5737
5700 5701 5701 5702 5703 5704 5704 5704 5704 5705 5706 5708 5709 5711 5712 5713 5714 5714 5715 5716 5716 5717 5718 5719 5719 5719 5720 5720 5721 5721 5721 5722 5723 5724 5724 5725 5726 5727 5727 5728 5728 5729 5729 5729 5730 5730 5730 5730 5730 5730 5730 5730 5730 5730 5730 5731 5731 5732 5733 5734 5735 5735 5735 5735 5735 5734 5734 5734 5734
5697 5697 5698 5699 5699 5700 5701 5701 5701 5701 5702 5703 5705 5707 5708 5709 5710 5711 5712 5713 5713 5714 5715 5716 5716 5717 5717 5718 5718 5718 5718 5719 5719 5720 5721 5722 5723 5724 5724 5725 5725 5726 5726 5726 5727 5727 5728 5728 5728 5728 5727 5727 5727 5728 5728 5728 5729 5729 5730 5731 5731 5731 5731 5731 5731 5730 5730 5730 5729
5694 5694 5695 5695 5696 5697 5697 5698 5698 5698 5698 5699 5700 5702 5704 5705 5706 5707 5709 5709 5710 5711 5712 5712 5713 5713 5714 5714 5714 5715 5715 5716 5716 5717 5718 5719 5719 5720 5721 5722 5723 5723 5723 5723 5724 5724 5725 5726 5726 5726 5725 5725 5725 5725 5726 5726 5726 5727 5727 5727 5727 5727 5727 5727 5727 5726 5726 5725 5725
5690 5691 5692 5692 5693 5693 5694 5694 5694 5694 5695 5695 5696 5698 5699 5700 5702 5703 5704 5705 5707 5708 5708 5708 5709 5710 5710 5711 5711 5712 5712 5713 5713 5714 5715 5716 5717 5718 5718 5719 5719 5720 5720 5720 5721 5721 5722 5723 5724 5724 5724 5724 5724 5724 5724 5724 5724 5724 5724 5724 5724 5724 5723 5723 5723 5722 5722 5722 5722
5687 5688 5688 5689 5689 5689 5690 5690 5691 5691 5691 5692 5692 5693 5694 5696 5697 5699 5700 5701 5703 5704 5704 5705 5705 5706 5706 5707 5707 5708 5709 5709 5710 5711 5712 5713 5714 5714 5715 5716 5716 5717 5717 5717 5718 5718 5719 5720 5720 5721 5721 5721 5721 5721 5721 5721 5721 5720 5720 5720 5720 5720 5720 5719 5719 5719 5719 5719 5718
5683 5684 5685 5685 5686 5686 5686 5687 5687 5687 5688 5688 5689 5689 5690 5691 5692 5694 5695 5697 5698 5699 5700 5701 5702 5702 5703 5703 5704 5704 5705 5706 5707 5708 5708 5709 5710 5711 5712 5713 5713 5714 5714 5714 5714 5714 5715 5715 5716 5717 5717 5717 5718 5718 5718 5718 5718 5717 5717 5717 5717 5717 5716 5716 5716 5715 5715 5715 5715
5679 5680 5681 5681 5682 5683 5683 5683 5683 5684 5684 5684 5685 5685 5686 5687 5688 5689 5690 5692 5693 5694 5696 5697 5698 5698 5699 5699 5700 5700 5701 5702 5703 5704 5704 5705 5706 5707 5708 5709 5709 5710 5710 5710 5710 5711 5711 5711 5712 5712 5713 5713 5714 5714 5714 5714 5714 5714 5714 5713 5713 5713 5713 5712 5712 5712 5712 5712 5712
5675 5676 5677 5677 5678 5679 5679 5679 5679 5680 5680 5680 5681 5681 5682 5683 5684 5684 5685 5687 5688 5689 5691 5692 5693 5693 5694 5695 5696 5697 5697 5698 5699 5700 5701 5701 5702 5703 5704 5705 5706 5706 5707 5707 5707 5707 5707 5708 5708 5709 5709 5709 5709 5709 5710 5710 5710 5710 5710 5710 5709 5709 5709 5709 5709 5709 5709 5709 5709
5670 5671 5672 5673 5674 5674 5674 5675 5675 5676 5676 5676 5677 5677 5678 5679 5679 5680 5681 5682 5683 5684 5685 5686 5687 5688 5689 5690 5691 5692 5693 5694 5695 5696 5696 5697 5698 5699 5700 5700 5701 5702 5703 5703 5703 5703 5704 5704 5704 5705 5705 5705 5706 5706 5706 5706 5706 5706 5706 5706 5706 5706 5706 5706 5706 5706 5706 5706 5706
5666 5667 5668 5669 5669 5670 5670 5671 5671 5672 5672 5672 5673 5673 5674 5674 5675 5676 5677 5678 5679 5679 5680 5681 5682 5683 5684 5686 5687 5688 5689 5690 5691 5691 5692 5693 5694 5694 5695 5696 5697 5699 5699 5699 5699 5699 5700 5700 5701 5701 5701 5701 5702 5702 5702 5702 5702 5702 5702 5702 5702 5702 5703 5703 5703 5703 5703 5703 5703
5662 5663 5663 5664 5665 5665 5666 5667 5667 5668 5668 5668 5669 5669 5670 5670 5671 5672 5673 5673 5674 5674 5675 5676 5677 5678 5679 5681 5682 5683 5684 5685 5686 5686 5687 5688 5689 5690 5690 5691 5692 5693 5694 5694 5695 5695 5695 5696 5696 5697 5697 5697 5697 5697 5698 5698 5698 5698 5698 5699 5699 5699 5699 5699 5700 5700 5700 5700 5700
5658 5659 5659 5660 5661 5662 5662 5663 5664 5664 5664 5664 5665 5665 5666 5666 5667 5668 5669 5669 5670 5670 5671 5672 5673 5674 5674 5675 5677 5678 5679 5679 5680 5681 5682 5683 5684 5684 5685 5686 5687 5688 5688 5689 5690 5690 5691 5691 5692 5692 5692 5693 5693 5693 5694 5694 5694 5694 5694 5695 5695 5696 5696 5696 5697 5697 5697 5697 5697
5654 5655 5655 5656 5657 5658 5659 5659 5659 5660 5660 5661 5661 5662 5662 5663 5663 5664 5664 5665 5666 5667 5667 5668 5669 5669 5670 5671 5672 5673 5674 5674 5675 5676 5677 5678 5679 5679 5680 5681 5682 5683 5683 5684 5685 5685 5686 5686 5687 5687 5688 5688 5689 5689 5689 5690 5690 5690 5691 5691 5692 5692 5693 5693 5693 5693 5694 5694 5694
5651 5651 5652 5653 5654 5654 5655 5655 5656 5656 5657 5657 5658 5658 5659 5659 5659 5660 5661 5662 5662 5663 5664 5664 5665 5665 5666 5667 5668 5669 5669 5670 5671 5672 5672 5673 5674 5675 5676 5676 5677 5678 5679 5679 5680 5680 5681 5682 5682 5683 5683 5684 5684 5685 5685 5686 5686 5687 5687 5688 5689 5689 5689 5689 5689 5690 5690 5690 5690
5647 5648 5649 5649 5650 5651 5651 5652 5653 5653 5653 5654 5654 5654 5655 5655 5656 5657 5657 5658 5658 5659 5660 5660 5661 5662 5663 5664 5664 5665 5665 5666 5667 5667 5668 5669 5670 5670 5671 5672 5673 5673 5674 5674 5675 5676 5676 5677 5678 5679 5679 5680 5680 5681 5681 5682 5683 5683 5684 5684 5685 5685 5685 5686 5686 5686 5686 5686 5686
5643 5644 5645 5646 5646 5647 5648 5649 5649 5649 5650 5650 5651 5651 5652 5652 5653 5653 5654 5654 5655 5655 5656 5657 5657 5658 5659 5659 5660 5660 5661 5662 5663 5663 5664 5665 5665 5666 5667 5668 5668 5669 5669 5670 5671 5671 5672 5673 5674 5674 5675 5676 5676 5677 5678 5678 5679 5680 5681 5681 5681 5682 5682 5682 5682 5683 5683 5683 5683
5639 5640 5641 5642 5643 5644 5644 5645 5646 5646 5647 5647 5648 5648 5649 5649 5649 5649 5650 5651 5651 5652 5652 5653 5654 5654 5655 5655 5656 5657 5657 5658 5659 5659 5660 5661 5661 5662 5663 5664 5664 5665 5665 5666 5667 5667 5668 5669 5670 5670 5671 5672 5673 5673 5674 5675 5676 5676 5677 5678 5678 5678 5679 5679 5679 5679 5679 5679 5679
5636 5637 5638 5638 5639 5640 5640 5641 5642 5643 5643 5644 5644 5645 5645 5645 5646 5646 5647 5647 5648 5649 5649 5650 5650 5651 5651 5652 5653 5653 5654 5654 5654 5655 5656 5657 5657 5658 5659 5659 5660 5661 5661 5662 5663 5664 5664 5665 5666 5667 5668 5668 5669 5670 5670 5671 5672 5673 5674 5674 5674 5675 5675 5675 5675 5675 5675 5675 5675
5633 5633 5634 5634 5635 5636 5637 5637 5638 5639 5639 5640 5641 5641 5642 5642 5642 5643 5644 5644 5645 5645 5646 5647 5647 5648 5648 5649 5649 5650 5650 5651 5651 5652 5652 5653 5654 5654 5655 5656 5656 5657 5657 5658 5659 5660 5660 5661 5662 5663 5664 5664 5665 5666 5667 5668 5669 5669 5670 5671 5671 5671 5671 5672 5672 5672 5672 5672 5671
5629 5629 5630 5631 5631 5632 5633 5634 5634 5635 5635 5636 5637 5637 5638 5638 5639 5639 5640 5641 5641 5642 5643 5644 5644 5644 5645 5646 5646 5647 5647 5647 5648 5648 5649 5649 5650 5651 5651 5652 5653 5653 5654 5654 5655 5656 5657 5658 5659 5660 5660 5661 5662 5663 5664 5665 5665 5666 5667 5667 5667 5668 5668 5668 5668 5668 5668 5668 5668
5625 5626 5626 5627 5628 5628 5629 5629 5630 5631 5631 5632 5633 5633 5634 5634 5635 5636 5637 5637 5638 5639 5640 5640 5641 5641 5642 5643 5643 5644 5644 5644 5645 5645 5646 5646 5647 5648 5648 5649 5649 5650 5650 5651 5652 5653 5654 5654 5655 5656 5657 5658 5659 5659 5660 5661 5662 5663 5663 5664 5664 5664 5664 5664 5664 5664 5664 5664 5664
5621 5622 5623 5623 5624 5624 5625 5625 5626 5627 5627 5628 5629 5629 5630 5631 5632 5633 5633 5634 5635 5636 5637 5637 5638 5639 5639 5639 5640 5640 5641 5641 5642 5642 5643 5643 5644 5644 5645 5646 5646 5646 5647 5648 5649 5649 5650 5651 5652 5653 5654 5654 5655 5656 5657 5658 5659 5659 5659 5660 5660 5660 5660 5660 5660 5660 5660 5660 5660
5617 5618 5619 5619 5620 5620 5621 5622 5622 5623 5624 5624 5624 5625 5626 5627 5628 5629 5630 5631 5632 5633 5633 5634 5634 5635 5636 5636 5637 5637 5638 5638 5639 5639 5639 5640 5641 5642 5642 5643 5643 5644 5644 5645 5645 5646 5647 5648 5649 5649 5650 5651 5652 5653 5654 5654 5655 5655 5656 5656 5656 5656 5656 5657 5656 5656 5656 5656 5656
5613 5614 5615 5616 5616 5617 5617 5618 5618 5619 5619 5620 5621 5622 5623 5624 5624 5625 5626 5627 5628 5629 5629 5630 5631 5632 5633 5633 5634 5634 5634 5635 5635 5636 5636 5637 5638 5639 5639 5640 5640 5640 5641 5642 5642 5643 5644 5644 5645 5646 5647 5648 5648 5649 5650 5651 5651 5652 5652 5653 5653 5653 5653 5653 5653 5653 5653 5653 5652
5609 5609 5611 5612 5612 5613 5613 5614 5614 5615 5616 5616 5617 5618 5619 5620 5621 5621 5622 5623 5624 5625 5626 5626 5627 5628 5629 5629 5630 5631 5631 5632 5632 5633 5633 5634 5634 5635 5636 5637 5637 5637 5638 5638 5639 5640 5640 5641 5642 5643 5643 5644 5645 5646 5646 5647 5648 5648 5649 5649 5649 5649 5649 5649 5649 5649 5649 5649 5649
5604 5605 5606 5607 5608 5609 5609 5610 5610 5611 5612 5613 5614 5615 5615 5616 5617 5618 5619 5619 5620 5621 5622 5622 5623 5624 5625 5626 5626 5627 5627 5628 5628 5629 5629 5630 5631 5632 5632 5633 5634 5634 5634 5635 5636 5636 5637 5638 5639 5639 5640 5640 5641 5642 5643 5644 5644 5645 5645 5645 5646 5646 5646 5646 5646 5646 5645 5645 5645
5599 5600 5601 5602 5603 5604 5605 5606 5606 5607 5608 5609 5610 5611 5611 5612 5613 5614 5615 5616 5617 5617 5618 5619 5619 5620 5621 5622 5622 5623 5624 5624 5624 5625 5626 5627 5627 5628 5629 5629 5630 5630 5631 5632 5632 5633 5634 5634 5635 5636 5636 5637 5638 5639 5639 5640 5641 5641 5642 5642 5642 5642 5642 5642 5642 5642 5642 5642 5642